[[{"header":{"parameterUnit":"m.s-1","parameterCategory":1,"la1":30.2992,"la2":30.254,"lo1":-89.0895,"lo2":-89.0443,"dy":0.0025,"dx":0.0025,"nx":19,"ny":19,"refTime":"2026-04-04T21:00:00:Z","depth":0,"parameterNumber":2,"parameterNumberName":"U-component_of_WINDS"},"data":[0,0,0,-0.6997,-0.6998,-0.7069,-0.7069,-0.7156,-0.7157,0,0,0,0,0,0,0,0,0,0,0,-0.6975,-0.6975,-0.6997,-0.6998,-0.7069,-0.7069,-0.7156,-0.7157,0,0,0,0,0,0,0,0,0,0,0,-0.6974,-0.6975,-0.6976,-0.6999,-0.7069,-0.7069,-0.7156,-0.7104,0,0,0,0,0,0,0,0,0,0,-0.7036,-0.7014,-0.6975,-0.6976,-0.6999,-0.7069,-0.7069,-0.7101,-0.7107,-0.7123,0,-0.7138,0,-0.7149,-0.7163,-0.7163,0,0,0,-0.6999,-0.7009,-0.703,-0.6976,-0.7,-0.7068,-0.7037,-0.7104,-0.7111,-0.7131,-0.7139,-0.7142,-0.715,-0.7163,-0.7164,-0.7254,-0.7254,0,0,-0.6996,-0.6987,-0.7025,-0.7034,-0.7023,-0.7035,-0.7039,-0.7108,-0.7117,-0.7139,-0.7144,-0.7151,-0.7164,-0.7164,-0.7254,-0.7254,0,0,0,-0.6984,-0.6984,-0.7002,-0.703,-0.7043,-0.7037,-0.7042,-0.7114,-0.712,-0.7145,-0.7152,-0.7164,-0.7165,-0.7253,-0.7254,-0.7264,0,0,0,-0.6981,-0.6977,-0.7001,-0.6996,-0.7042,-0.7079,-0.7046,-0.7115,-0.7124,-0.7152,-0.7164,-0.7166,-0.7253,-0.7254,-0.7263,-0.727,0,0,0,-0.6971,-0.6976,-0.6985,-0.6995,-0.7025,-0.7078,-0.7089,-0.7117,-0.7128,-0.7163,-0.7166,-0.7253,-0.7253,-0.7262,-0.7269,-0.7292,0,0,0,-0.6956,-0.6994,-0.6985,-0.703,-0.7025,-0.7084,-0.7089,-0.7133,-0.7165,-0.7165,-0.7253,-0.7254,-0.7261,-0.7268,-0.729,-0.7309,-0.7316,0,0,-0.6998,-0.6998,-0.7025,-0.702,-0.7078,-0.7074,-0.7134,-0.7171,-0.7182,-0.7229,-0.7232,-0.7263,-0.7269,-0.7291,-0.7358,-0.7364,0,0,0,-0.7035,-0.7054,-0.7072,-0.7101,-0.713,-0.7155,-0.7184,-0.7197,-0.7238,-0.7205,-0.7278,-0.7281,-0.7295,-0.7304,-0.7309,-0.7321,-0.7258,-0.7258,-0.7257,-0.7083,-0.7095,-0.714,-0.716,-0.7188,-0.7217,-0.7241,-0.7264,-0.7268,-0.7285,-0.73,-0.7339,-0.7349,-0.7353,-0.7366,-0.731,-0.731,-0.731,-0.731,-0.7145,-0.7174,-0.7179,-0.7224,-0.7236,-0.7274,-0.7303,-0.7305,-0.7341,-0.7329,-0.7342,-0.7328,-0.7359,-0.737,-0.7311,-0.7311,-0.7311,-0.7311,-0.7311,-0.7178,-0.7194,-0.721,-0.7253,-0.7284,-0.7303,-0.7338,-0.7348,-0.7358,-0.7371,-0.7387,-0.7387,-0.7388,-0.7377,-0.7378,-0.7378,-0.7378,-0.7378,-0.7378,-0.7206,-0.7223,-0.7252,-0.7285,-0.7304,-0.7332,-0.736,-0.7379,-0.7404,-0.7408,-0.7408,-0.7411,-0.7359,-0.7346,-0.738,-0.738,-0.7379,-0.7379,-0.7379,-0.7266,-0.7254,-0.7298,-0.7318,-0.7357,-0.7387,-0.7399,-0.7438,-0.7455,-0.7472,-0.7472,-0.7432,-0.7433,-0.7429,-0.7419,-0.7469,-0.7469,-0.7469,-0.7469,-0.7294,-0.7295,-0.7342,-0.7373,-0.7404,-0.7419,-0.7468,-0.749,-0.751,-0.7522,-0.7516,-0.7502,-0.7498,-0.7501,-0.7496,-0.7486,-0.7553,-0.7553,-0.7553,-0.7331,-0.7336,-0.7376,-0.7396,-0.7427,-0.7454,-0.75,-0.7535,-0.7555,-0.7557,-0.7531,-0.7527,-0.7506,-0.7498,-0.75,-0.7491,-0.7474,0,0]},{"header":{"parameterUnit":"m.s-1","parameterCategory":1,"la1":30.2992,"la2":30.254,"lo1":-89.0895,"lo2":-89.0443,"dy":0.0025,"dx":0.0025,"nx":19,"ny":19,"refTime":"2026-04-04T21:00:00:Z","depth":0,"parameterNumber":3,"parameterNumberName":"V-component_of_WINDS"},"data":[0,0,0,-5.2386,-5.2388,-5.2485,-5.2485,-5.2616,-5.2617,0,0,0,0,0,0,0,0,0,0,0,-5.2362,-5.2363,-5.2385,-5.2388,-5.2485,-5.2485,-5.2616,-5.2617,0,0,0,0,0,0,0,0,0,0,0,-5.2362,-5.2363,-5.2364,-5.2388,-5.2485,-5.2485,-5.2615,-5.2539,0,0,0,0,0,0,0,0,0,0,-5.2444,-5.2428,-5.2363,-5.2364,-5.2389,-5.2485,-5.2486,-5.2536,-5.2544,-5.2575,0,-5.2606,0,-5.2614,-5.2626,-5.2627,0,0,0,-5.2383,-5.2421,-5.2442,-5.2365,-5.239,-5.2485,-5.244,-5.254,-5.255,-5.2587,-5.2608,-5.2612,-5.2616,-5.2627,-5.2628,-5.2829,-5.283,0,0,-5.2378,-5.2382,-5.2436,-5.2449,-5.2437,-5.2437,-5.2443,-5.2546,-5.2568,-5.2608,-5.2615,-5.2618,-5.2628,-5.2629,-5.2828,-5.283,0,0,0,-5.2366,-5.2378,-5.2397,-5.2444,-5.2461,-5.244,-5.2447,-5.2564,-5.257,-5.2617,-5.262,-5.2629,-5.2631,-5.2827,-5.2829,-5.2892,0,0,0,-5.2362,-5.2371,-5.2395,-5.2399,-5.246,-5.2514,-5.2462,-5.2563,-5.2574,-5.2619,-5.2629,-5.2632,-5.2826,-5.2828,-5.2888,-5.2921,0,0,0,-5.2354,-5.237,-5.2387,-5.2399,-5.2441,-5.2512,-5.2524,-5.2565,-5.2576,-5.2627,-5.2633,-5.2825,-5.2827,-5.2884,-5.2914,-5.2977,0,0,0,-5.2345,-5.2439,-5.2388,-5.2493,-5.244,-5.2552,-5.2523,-5.2605,-5.2656,-5.263,-5.2826,-5.2829,-5.2883,-5.291,-5.2973,-5.3031,-5.3055,0,0,-5.2466,-5.2453,-5.2516,-5.2472,-5.2595,-5.2536,-5.2667,-5.2708,-5.2707,-5.2788,-5.2793,-5.2889,-5.2914,-5.2976,-5.319,-5.321,0,0,0,-5.2555,-5.26,-5.2631,-5.2682,-5.2718,-5.2751,-5.2772,-5.2788,-5.2857,-5.2751,-5.2928,-5.2943,-5.2979,-5.3006,-5.3023,-5.3054,-5.2841,-5.2841,-5.2841,-5.273,-5.2727,-5.283,-5.284,-5.2889,-5.2912,-5.2952,-5.2976,-5.2956,-5.2999,-5.3023,-5.3153,-5.3186,-5.3198,-5.3231,-5.3052,-5.3053,-5.3053,-5.3053,-5.2906,-5.2969,-5.2945,-5.3036,-5.3033,-5.3108,-5.3134,-5.3118,-5.3188,-5.3134,-5.3166,-5.3108,-5.322,-5.3248,-5.3058,-5.3057,-5.3056,-5.3056,-5.3056,-5.3021,-5.3051,-5.3071,-5.3146,-5.3203,-5.3209,-5.3278,-5.3271,-5.3265,-5.3297,-5.3322,-5.3321,-5.332,-5.3309,-5.331,-5.331,-5.3311,-5.3311,-5.3311,-5.3132,-5.3152,-5.3213,-5.3262,-5.3294,-5.3337,-5.3363,-5.3394,-5.3427,-5.3417,-5.3417,-5.3394,-5.3231,-5.3191,-5.3318,-5.3317,-5.3316,-5.3315,-5.3315,-5.3312,-5.3271,-5.3365,-5.3398,-5.3456,-5.3515,-5.3506,-5.3572,-5.3597,-5.3632,-5.3603,-5.3484,-5.347,-5.3456,-5.3423,-5.3603,-5.3603,-5.3603,-5.3603,-5.3409,-5.3403,-5.3499,-5.3553,-5.3605,-5.3609,-5.3714,-5.3736,-5.3751,-5.3766,-5.3739,-5.3694,-5.3681,-5.3675,-5.3657,-5.3626,-5.3853,-5.3853,-5.3854,-5.3521,-5.3519,-5.3611,-5.3629,-5.3674,-5.3713,-5.3813,-5.3875,-5.3883,-5.3864,-5.3779,-5.3768,-5.3695,-5.3672,-5.3649,-5.3621,-5.3564,0,0]}]]